Regional Weather Roundup
Issued by NWS Little Rock, AR

Home | Current Version | Previous Version | Text Only | Print | Product List | Glossary On
Versions: 1 2 3 4 5 6 7 8 9 10 11 12 13 14 15 16 17 18 19 20 21 22 23 24 25 26 27
000
ASUS44 KLZK 260205
RWRLZK

WEATHER ROUNDUP FOR ARKANSAS
NATIONAL WEATHER SERVICE LITTLE ROCK AR
900 PM CDT SAT OCT 25 2014

NOTE: "FAIR" INDICATES FEW OR NO CLOUDS BELOW 12,000 FEET WITH NO
SIGNIFICANT WEATHER AND/OR OBSTRUCTIONS TO VISIBILITY.

ARZ001-003-010-029-260300-
NORTHWEST ARKANSAS

CITY           SKY/WX    TMP DP  RH WIND       PRES   REMARKS
FAYETTEVILLE   CLEAR     64  63  96 SE3       30.06S
FORT SMITH     CLEAR     68  64  87 CALM      30.02S
HARRISON       CLEAR     67  61  81 SW6       30.06S
BENTONVILLE    CLEAR     64  59  82 S5        30.05F
ROGERS         CLEAR     67  61  81 SE3       30.07S
SILOAM SPGS    CLEAR     66  59  77 S6        30.06S
HIGHFILL       CLEAR     64  61  90 CALM      30.05S
SPRINGDALE     CLEAR     66  63  88 CALM      30.08S
$$

ARZ004-005-016-260300-
NORTH CENTRAL ARKANSAS

CITY           SKY/WX    TMP DP  RH WIND       PRES   REMARKS
BATESVILLE     CLEAR     68  63  83 CALM      30.03R
FLIPPIN        CLEAR     64  59  82 CALM      30.03F
MTN HOME       CLEAR     69  62  78 CALM      30.03S
$$

ARZ040-041-260300-
WEST CENTRAL ARKANSAS

CITY           SKY/WX    TMP DP  RH WIND       PRES   REMARKS
MENA           CLEAR     64  63  94 CALM      30.08S
MOUNT IDA      CLEAR     67  64  90 CALM      30.04S
$$

ARZ009-017-025-026-028-260300-
NORTHEAST ARKANSAS

CITY           SKY/WX    TMP DP  RH WIND       PRES   REMARKS
CORNING        FAIR      66  64  94 CALM      30.02S
JONESBORO      CLEAR     65  62  90 CALM      30.02S
NEWPORT        CLEAR     69  63  81 SW5       30.03S
WALNUT RIDGE   CLEAR     70  63  78 CALM      30.01S
BLYTHEVILLE    CLEAR     69  63  81 S3        30.03S
$$

ARZ022-023-033-042-044-260300-
CENTRAL ARKANSAS

CITY           SKY/WX    TMP DP  RH WIND       PRES   REMARKS
LITTLE ROCK    CLEAR     72  64  76 SW7       30.03S
N LITTLE ROCK  CLEAR     73  67  80 SW6       30.03S
JACKSONVILLE   CLEAR     64  61  90 E1        30.03S
SEARCY         CLEAR     64  62  93 S3        30.04R
HOT SPRINGS    CLEAR     67  63  87 CALM      30.05F
RUSSELLVILLE   CLEAR     64  62  93 CALM      30.03S
$$

ARZ036-260300-
EAST ARKANSAS

CITY           SKY/WX    TMP DP  RH WIND       PRES   REMARKS
WEST MEMPHIS   CLEAR     65  62  90 SE5       30.02S
$$

ARZ050-053-066-070-073-260300-
SOUTHWEST ARKANSAS

CITY           SKY/WX    TMP DP  RH WIND       PRES   REMARKS
ARKADELPHIA    FAIR      65  65 100 CALM      30.05S FOG
CAMDEN         CLEAR     64  63  94 CALM      30.05S FOG
TEXARKANA      CLEAR     71  64  78 S3        30.06S
EL DORADO      CLEAR     63  63 100 CALM      30.07S FOG
DE QUEEN       FOG       64  64 100 CALM      30.04S VSB 1/4
$$

ARZ056-057-069-260300-
SOUTHEAST ARKANSAS

CITY           SKY/WX    TMP DP  RH WIND       PRES   REMARKS
PINE BLUFF     CLEAR     68  64  87 S5        30.05R
STUTTGART      CLEAR     68  63  83 S9        30.04S
MONTICELLO     CLEAR     69  64  84 W5        30.05S

$$





USA.gov is the U.S. government's official web portal to all federal, state and local government web resources and services.